TimeMDT,TemperatureF,Dew PointF,Humidity,Sea Level PressureIn,VisibilityMPH,Wind Direction,Wind SpeedMPH,Gust SpeedMPH,PrecipitationIn,Events,Conditions,WindDirDegrees,DateUTC
12:03 AM,37.4,35.6,93,30.02,7.0,North,18.4,-,0.00,Rain,Light Rain,350,2012-10-03 06:03:00
12:39 AM,33.8,30.2,87,30.05,1.8,NNW,19.6,27.6,0.04,Snow,Light Snow,330,2012-10-03 06:39:00
12:50 AM,33.8,30.2,87,30.05,1.2,North,13.8,-,0.07,Snow,Light Snow,350,2012-10-03 06:50:00
12:53 AM,33.1,30.9,92,30.08,1.2,North,12.7,-,0.07,Snow,Light Snow,350,2012-10-03 06:53:00
1:07 AM,33.8,32.0,93,30.09,1.2,WNW,13.8,-,0.02,Snow,Light Snow,290,2012-10-03 07:07:00
1:18 AM,33.8,30.2,87,30.09,2.0,WNW,11.5,-,0.03,Snow,Light Snow,300,2012-10-03 07:18:00
1:30 AM,33.8,30.2,87,30.09,1.5,NNW,9.2,-,0.04,Snow,Light Snow,340,2012-10-03 07:30:00
1:38 AM,33.8,32.0,93,30.09,1.0,NNW,6.9,-,0.05,Snow,Light Snow,340,2012-10-03 07:38:00
1:53 AM,33.1,32.0,96,30.11,1.0,NNW,6.9,-,0.08,Snow,Light Snow,340,2012-10-03 07:53:00
2:14 AM,33.8,30.2,87,30.11,1.5,NNW,10.4,-,0.03,Snow,Light Snow,340,2012-10-03 08:14:00
2:40 AM,33.8,30.2,87,30.11,2.0,NNW,10.4,-,0.04,Snow,Light Snow,330,2012-10-03 08:40:00
2:46 AM,33.8,30.2,87,30.11,1.5,NNW,9.2,-,0.05,Snow,Light Snow,340,2012-10-03 08:46:00
2:53 AM,33.1,30.9,92,30.12,1.8,NNW,11.5,-,0.05,Snow,Light Snow,340,2012-10-03 08:53:00
3:00 AM,33.8,30.2,87,30.12,2.5,NNW,11.5,-,0.00,Snow,Light Snow,340,2012-10-03 09:00:00
3:32 AM,33.8,30.2,87,30.14,1.8,NNW,10.4,-,0.02,Snow,Light Snow,330,2012-10-03 09:32:00
3:53 AM,33.1,30.9,92,30.16,2.0,North,12.7,-,0.03,Snow,Light Snow,350,2012-10-03 09:53:00
4:08 AM,33.8,32.0,93,30.16,3.0,NNW,10.4,-,0.00,Snow,Light Snow,340,2012-10-03 10:08:00
4:53 AM,33.1,32.0,96,30.20,5.0,NNW,9.2,-,0.00,Snow,Light Snow,330,2012-10-03 10:53:00
5:53 AM,34.0,32.0,92,30.25,9.0,NNW,9.2,-,0.00,,Overcast,330,2012-10-03 11:53:00
6:41 AM,33.8,32.0,93,30.24,1.8,NNW,11.5,-,0.02,Snow,Light Snow,330,2012-10-03 12:41:00
6:50 AM,33.8,32.0,93,30.25,1.0,NNW,11.5,-,0.04,Snow,Light Snow,330,2012-10-03 12:50:00
6:53 AM,33.1,32.0,96,30.29,0.5,NNW,10.4,-,0.04,Snow,Light Snow,330,2012-10-03 12:53:00
7:32 AM,33.8,32.0,93,30.26,1.0,NW,12.7,-,0.03,Snow,Light Snow,320,2012-10-03 13:32:00
7:40 AM,33.8,32.0,93,30.27,2.5,NW,11.5,-,0.03,Snow,Light Snow,320,2012-10-03 13:40:00
7:53 AM,34.0,32.0,92,30.34,2.5,NNW,13.8,-,0.04,Snow,Light Snow,330,2012-10-03 13:53:00
8:08 AM,33.8,32.0,93,30.28,3.0,NNW,17.3,-,0.01,Snow,Light Snow,340,2012-10-03 14:08:00
8:53 AM,34.0,32.0,92,30.39,9.0,NNW,16.1,-,0.03,Snow,Light Snow,340,2012-10-03 14:53:00
9:53 AM,35.1,33.1,92,30.43,10.0,NNW,19.6,-,0.01,,Overcast,340,2012-10-03 15:53:00
10:53 AM,35.1,33.1,92,30.47,10.0,NNW,19.6,28.8,0.00,,Overcast,340,2012-10-03 16:53:00
11:53 AM,36.0,34.0,93,30.51,10.0,North,23.0,-,0.00,Rain,Light Rain,350,2012-10-03 17:53:00
12:53 PM,37.0,34.0,89,30.54,6.0,NNW,17.3,-,0.00,Rain,Light Rain,340,2012-10-03 18:53:00
1:53 PM,37.9,35.1,89,30.55,10.0,NNW,19.6,25.3,0.03,Rain,Light Rain,340,2012-10-03 19:53:00
2:24 PM,37.4,33.8,87,30.44,10.0,NNW,20.7,-,0.00,,Overcast,340,2012-10-03 20:24:00
2:53 PM,37.9,34.0,86,30.56,10.0,NNW,16.1,-,0.00,,Overcast,340,2012-10-03 20:53:00
3:04 PM,37.4,33.8,87,30.46,10.0,NNW,18.4,27.6,N/A,,Overcast,340,2012-10-03 21:04:00
3:25 PM,37.4,33.8,87,30.46,10.0,NNW,15.0,-,N/A,,Overcast,340,2012-10-03 21:25:00
3:53 PM,39.0,34.0,82,30.58,10.0,NNW,15.0,23.0,N/A,,Overcast,330,2012-10-03 21:53:00
4:08 PM,39.2,33.8,81,30.47,10.0,NNW,16.1,-,N/A,,Overcast,340,2012-10-03 22:08:00
4:46 PM,37.4,33.8,87,30.47,10.0,NW,16.1,-,0.00,Rain,Light Rain,320,2012-10-03 22:46:00
4:53 PM,37.9,34.0,86,30.58,10.0,NNW,17.3,21.9,0.00,Rain,Light Rain,340,2012-10-03 22:53:00
5:19 PM,37.4,32.0,81,30.49,10.0,NNW,12.7,-,0.00,,Overcast,330,2012-10-03 23:19:00
5:53 PM,37.9,33.1,83,30.60,10.0,NW,10.4,-,0.00,,Overcast,320,2012-10-03 23:53:00
6:27 PM,37.4,32.0,81,30.50,10.0,NNW,10.4,-,0.01,,Overcast,340,2012-10-04 00:27:00
6:53 PM,37.0,32.0,82,30.61,10.0,NNW,5.8,-,0.01,,Overcast,340,2012-10-04 00:53:00
7:27 PM,37.4,30.2,75,30.50,8.0,NNW,5.8,-,0.00,Snow,Light Snow,330,2012-10-04 01:27:00
7:45 PM,37.4,30.2,75,30.49,10.0,NNW,5.8,-,0.00,,Overcast,330,2012-10-04 01:45:00
7:53 PM,37.0,32.0,82,30.61,10.0,NW,3.5,-,0.00,,Overcast,310,2012-10-04 01:53:00
8:46 PM,37.4,30.2,75,30.49,10.0,Calm,Calm,-,N/A,,Overcast,0,2012-10-04 02:46:00
8:53 PM,37.0,30.9,79,30.60,10.0,Calm,Calm,-,N/A,,Overcast,0,2012-10-04 02:53:00
9:11 PM,37.4,30.2,75,30.49,10.0,Calm,Calm,-,N/A,,Overcast,0,2012-10-04 03:11:00
9:53 PM,36.0,33.1,89,30.60,10.0,WSW,3.5,-,N/A,,Overcast,250,2012-10-04 03:53:00
10:53 PM,36.0,30.9,82,30.59,10.0,NW,4.6,-,N/A,,Overcast,320,2012-10-04 04:53:00
11:53 PM,35.1,30.9,85,30.58,10.0,NW,3.5,-,N/A,,Overcast,320,2012-10-04 05:53:00